VIASAT-2

Last updated on Mon Sep 07 2026 00:03:00 GMT+0000 (Coordinated Universal Time)

1 42740U 17029A 26249.57795494 -.00000281 00000+0 00000+0 0 9999 2 42740 0.0260 250.7095 0000210 282.9374 310.1622 1.00269376 34010
UTC large
Height (km)
Speed (km/s)
/
Latitude / Longitude
Inclination (degrees)
Orbital Period (minutes)
Azimuth
Elevation
Range (km)
Doppler Factor

Next 0 passes for location: London (51.5072 / 0.1276)

No passes found over London.
VIASAT-2